Zurück zum Katalog

ORBCOMM FM 31

AktivKommunikationLEO
NORAD 25981·PAYLOAD·🇺🇸 United States

Gestartet Dec 4, 1999 von Cape Canaveral Space Force Station

Loading…

Nächste Überflüge (nächste 24 Stunden)

TLE

AktuellSource: Space-Track

Epoche: Sep 14, 2026, 08:09 UTC

1 25981U 99065B   26257.34020867  .00000448  00000-0  19266-3 0  9999
2 25981  45.0221  91.6173 0004225 142.6769 217.4373 14.38172287399366

Verfolge ORBCOMM FM 31 in Echtzeit mit AllMySat

Download on the App Store